This is the latest recevied weather packets stored in our database for station/object KD8UYA. If no packets are shown the sender has not sent any weather packets the latest 10 day(s).
| Time | Temp. | Humidity | Pressure | Rain* | Wind** | Luminosity | Snow |
|---|---|---|---|---|---|---|---|
| 1777498217 | 8.33° C | 98% | 1007.3 hPa | 0 mm | - | - | - |
| 1777497317 | 8.33° C | 98% | 1007.1 hPa | 0 mm | - | - | - |
| 1777496416 | 8.33° C | 98% | 1006.8 hPa | 0 mm | - | - | - |
| 1777495515 | 8.33° C | 98% | 1006.6 hPa | 0 mm | - | - | - |
| 1777494613 | 8.33° C | 98% | 1006.4 hPa | 0 mm | - | - | - |
| 1777493712 | 8.33° C | 98% | 1006.2 hPa | 0 mm | - | - | - |
| 1777492810 | 8.89° C | 98% | 1006.3 hPa | 0 mm | - | - | - |
| 1777491912 | 8.89° C | 98% | 1006.1 hPa | 0 mm | - | - | - |
| 1777491010 | 8.89° C | 98% | 1006.3 hPa | 0 mm | - | - | - |
| 1777490105 | 9.44° C | 97% | 1006.1 hPa | 0 mm | - | - | - |
| 1777489204 | 10° C | 98% | 1006.1 hPa | 0 mm | - | - | - |
| 1777488303 | 10.56° C | 97% | 1006 hPa | 0.25 mm | - | - | - |
| 1777487402 | 10.56° C | 97% | 1006.1 hPa | 0.25 mm | - | - | - |
| 1777486501 | 10.56° C | 98% | 1006.2 hPa | 0.51 mm | - | - | - |
| 1777485669 | 10.56° C | 97% | 1006.4 hPa | 0.76 mm | - | - | - |
| 1777484768 | 11.11° C | 97% | 1006.3 hPa | 0.51 mm | - | - | - |
| 1777483859 | 11.11° C | 97% | 1006.2 hPa | 0.51 mm | - | - | - |
| 1777482959 | 11.11° C | 97% | 1006.1 hPa | 0.25 mm | - | - | - |
| 1777482058 | 11.67° C | 96% | 1006.4 hPa | 1.27 mm | - | - | - |
| 1777481158 | 12.22° C | 97% | 1006.1 hPa | 2.79 mm | - | - | - |
| 1777480258 | 12.22° C | 96% | 1006.4 hPa | 3.05 mm | - | - | - |
| 1777479356 | 12.22° C | 96% | 1006.4 hPa | 3.05 mm | - | - | - |
| 1777478463 | 12.22° C | 96% | 1007.2 hPa | 1.78 mm | - | - | - |
| 1777477560 | 12.22° C | 95% | 1007.2 hPa | 0 mm | - | - | - |
| 1777476658 | 12.22° C | 95% | 1006.9 hPa | 0 mm | - | - | - |
* Rain latest hour (hover to see other rain measurements)
** Current wind speed in m/s (hover to see current wind gust speed)